Location: Boiro
(42.6475°N, 8.8834°W)
Time: 07:42:36
(UTC+01:00)

SR - Pass Details

Date: 30 November 2021
Orbit: 583 x 872 km, 66.7° (Epoch: 16 January)

Event Time Altitude Azimuth Distance (km) Brightness Sun altitude
Rises 10:50:05 0° 328° (NNW) 2,822 ? 16.5°
Reaches altitude 10° 10:52:17 10° 327° (NNW) 1,932 ? 16.7°
Maximum altitude 10:56:36 80° 242° (WSW) 627 ? 17.2°
Drops below altitude 10° 11:01:09 10° 155° (SSE) 2,033 ? 17.7°
Sets 11:03:30 0° 154° (SSE) 2,982 ? 17.9°
